STARLINK-5888 (56348 NORAD) Tracking and Keplerian Element Data

This shows tracking and keplerian element data for the satellite.

Feedback or suggestion? Click here.




ElementValue
Catalog56348
NameSTARLINK-5888
Epoch Orbit181
Epoch Day127.00001157
Epoch Year2023
RAAN126.4746
Inclination97.6631
Eccentricity0.0001446
Argument of Perigee90.5337
Mean Anonmoly240.5255
Mean Motion15.6821015
Decay Rate-0.00867604
L11 56348U 23058AH 23127.00001157 -.00867604 00000+0 -86412-2 0 9998
L22 56348 97.6631 126.4746 0001446 90.5337 240.5255 15.68210150 1814



Live tracking and technical data element details for STARLINK-5888 (NORAD 56348). STARLINK-5888 can be tracked NOW for your location showing map with azimuth and elevation plus other details from your city location.







IsCatalogInMostPopularTable: catalog: 56348, numindb: 5
Update: records affected: 1



GetName: 56348 STARLINK-5888

Hit Count: updated at: Wed, 07 Jun 2023 09:44:29 GMT